TimePDT,TemperatureF,Dew PointF,Humidity,Sea Level PressureIn,VisibilityMPH,Wind Direction,Wind SpeedMPH,Gust SpeedMPH,PrecipitationIn,Events,Conditions,WindDirDegrees,DateUTC
12:00 AM,71.6,57.2,60,29.90,40.0,East,10.4,-,N/A,,Scattered Clouds,90,2013-08-07 07:00:00
1:00 AM,68.0,55.4,64,29.92,40.0,East,3.5,-,N/A,,Partly Cloudy,90,2013-08-07 08:00:00
2:00 AM,66.2,57.2,73,29.93,40.0,ESE,6.9,-,N/A,,Partly Cloudy,110,2013-08-07 09:00:00
3:00 AM,64.4,55.4,73,29.94,40.0,East,2.3,-,N/A,,Clear,90,2013-08-07 10:00:00
4:00 AM,62.6,55.4,77,29.96,40.0,Calm,Calm,-,N/A,,Clear,0,2013-08-07 11:00:00
5:00 AM,62,55,73,29.96,37,SSE,1.2,,,,Scattered Clouds,150,2013-08-07 12:00:00
5:00 AM,62.6,55.4,77,29.96,40.0,Variable,2.3,-,N/A,,Clear,0,2013-08-07 12:00:00
6:00 AM,60.8,53.6,77,29.98,40.0,Calm,Calm,-,N/A,,Clear,0,2013-08-07 13:00:00
7:00 AM,62.6,53.6,72,29.99,40.0,Calm,Calm,-,N/A,,Clear,0,2013-08-07 14:00:00
8:00 AM,66.2,53.6,64,29.99,40.0,SSE,2.3,-,N/A,,Partly Cloudy,150,2013-08-07 15:00:00
9:00 AM,68.0,53.6,60,29.98,40.0,South,3.5,-,N/A,,Partly Cloudy,170,2013-08-07 16:00:00
10:00 AM,71.6,55.4,57,29.97,40.0,South,4.6,-,N/A,,Partly Cloudy,190,2013-08-07 17:00:00
11:00 AM,76,54,37,29.95,37,South,3.5,,,,Scattered Clouds,180,2013-08-07 18:00:00
11:00 AM,75.2,55.4,50,29.95,40.0,SSW,4.6,-,N/A,,Partly Cloudy,200,2013-08-07 18:00:00
12:00 PM,78.8,53.6,42,29.93,40.0,Variable,2.3,-,N/A,,Partly Cloudy,0,2013-08-07 19:00:00
1:00 PM,84.2,51.8,33,29.90,40.0,SW,5.8,-,N/A,,Scattered Clouds,230,2013-08-07 20:00:00
2:00 PM,87.8,48.2,25,29.88,40.0,SE,4.6,-,N/A,,Mostly Cloudy,130,2013-08-07 21:00:00
3:00 PM,91.4,44.6,20,29.85,40.0,SSE,4.6,-,N/A,,Mostly Cloudy,160,2013-08-07 22:00:00
4:00 PM,93.2,41.0,16,29.83,40.0,SE,4.6,-,N/A,,Mostly Cloudy,130,2013-08-07 23:00:00
5:00 PM,92,43,10,29.82,37,ESE,4.6,,,,Scattered Clouds,110,2013-08-08 00:00:00
5:00 PM,91.4,42.8,18,29.82,40.0,SE,4.6,-,N/A,,Mostly Cloudy,130,2013-08-08 00:00:00
6:00 PM,93.2,44.6,19,29.81,40.0,East,8.1,-,N/A,,Mostly Cloudy,90,2013-08-08 01:00:00
7:00 PM,91.4,44.6,20,29.80,40.0,East,3.5,-,N/A,,Mostly Cloudy,80,2013-08-08 02:00:00
8:00 PM,86.0,50.0,29,29.81,40.0,ESE,6.9,-,N/A,,Mostly Cloudy,110,2013-08-08 03:00:00
9:00 PM,84.2,50.0,30,29.82,40.0,East,6.9,-,N/A,,Mostly Cloudy,80,2013-08-08 04:00:00
10:00 PM,80.6,51.8,37,29.83,40.0,ENE,5.8,-,N/A,,Scattered Clouds,60,2013-08-08 05:00:00
11:00 PM,77.0,50.0,39,29.85,40.0,ESE,3.5,-,N/A,,Scattered Clouds,110,2013-08-08 06:00:00